Regional Weather Roundup
Issued by NWS Charleston, SC

Current Version | Previous Version | Graphics & Text | Print | Product List | Glossary On
Versions: 1 2 3 4 5 6 7 8 9 10 11 12 13 14 15 16 17 18 19 20 21 22 23 24 25 26 27 28 29 30 31 32 33 34 35 36 37 38 39 40 41 42 43 44 45 46 47 48 49 50
000
ASUS42 KCHS 260625
RWRCHS

REGIONAL WEATHER ROUNDUP
NATIONAL WEATHER SERVICE CHARLESTON SC
100 AM EST WED NOV 26 2014

NOTE: "FAIR" INDICATES FEW OR NO CLOUDS BELOW 12,000 FEET WITH NO
SIGNIFICANT WEATHER AND/OR OBSTRUCTIONS TO VISIBILITY.

NOT ALL STATIONS ARE QUALITY CONTROLLED BY THE NATIONAL
WEATHER SERVICE. USE DATA WITH CAUTION...ESPECIALLY
DEWPOINT OBSERVATIONS.

SCZ027-030-031-034>040-042>050-260700-
...SOUTHEAST SOUTH CAROLINA...

CITY           SKY/WX    TMP DP  RH WIND       PRES   REMARKS
N CHARLESTON   LGT RAIN  62  61  96 N8        29.82F
6HR MIN TEMP:  62; 6HR MAX TEMP:  64; 6HR PCP:  0.31;

WATERFRONT PRK   N/A     63 N/A N/A NW9         N/A
MOUNT PLEASANT NOT AVBL
JOHNS ISLAND   LGT RAIN  63  63 100 N7        29.81F
PINOPOLIS      NOT AVBL
MONCKS CORNER  LGT RAIN  61  61 100 N7        29.83F
SUMMERVILLE    RAIN      59  59 100 N7        29.84F
BEAUFORT MCAS  LGT RAIN  59  58  96 NW9       29.84F FOG
6HR MIN TEMP:  59; 6HR MAX TEMP:  61; 6HR PCP:  0.36;

BEAUFORT ARPT  LGT RAIN  59  59 100 CALM      29.83F
HILTON HEAD IS RAIN      61  61 100 NW8       29.84F
WALTERBORO     DRIZZLE   59 N/A N/A NW6       29.85F
ALLENDALE      LGT RAIN  54  54 100 NW8       29.87F

...SOUTHERN MIDLANDS AND PEE DEE...

CITY           SKY/WX    TMP DP  RH WIND       PRES   REMARKS
GEORGETOWN     NOT AVBL
KINGSTREE      NOT AVBL
ORANGEBURG     LGT RAIN  58  55  90 N6        29.88F FOG
6HR MIN TEMP:  58; 6HR MAX TEMP:  60; 6HR PCP:  0.17;

BARNWELL       HVY RAIN  52  52 100 NW10      29.92F
AIKEN          RAIN      46  46 100 NW7       29.97F
MANNING        NOT AVBL
COLUMBIA       LGT RAIN  55  52  89 N9        29.90F FOG
6HR MIN TEMP:  55; 6HR MAX TEMP:  58; 6HR PCP:  0.25;

SUMTER         RAIN      57  54  88 N10       29.86F
6HR MIN TEMP:  57; 6HR MAX TEMP:  60; 6HR PCP:  0.22;

FLORENCE       RAIN      56  54  93 N14       29.88F FOG
6HR MIN TEMP:  57; 6HR MAX TEMP:  62; 6HR PCP:  0.24;

MYRTLE BEACH   CLOUDY    63  61  94 E14G20    29.82F
N MYRTLE BEACH CLOUDY    64  62  93 E14G22    29.84F
6HR MIN TEMP:  63; 6HR MAX TEMP:  64; 6HR PCP:  0.11;


$$

GAZ063-065-086>088-099>101-113>116-118-119-134>141-150-260700-
...SOUTHEAST GEORGIA...

CITY           SKY/WX    TMP DP  RH WIND       PRES   REMARKS
SAVANNAH ARPT  RAIN      61  57  87 NW10      29.87F FOG
6HR MIN TEMP:  61; 6HR MAX TEMP:  61; 6HR PCP:  0.35;

HUNTER AAF     LGT RAIN  59  59 100 NW8       29.83F
6HR MIN TEMP:  60; 6HR MAX TEMP:  60; 6HR PCP:  0.28;

FORT STEWART   CLOUDY    55  54  94 NW10      29.86F
6HR MIN TEMP:  56; 6HR MAX TEMP:  58; 6HR PCP:  0.31;

STATESBORO     NOT AVBL
SYLVANIA       DRIZZLE   50  50  97 N12       29.91F
CLAXTON        CLOUDY    52  52 100 NW13      29.91F

...CSRA...CENTRAL AND FAR SOUTHEAST GEORGIA...

CITY           SKY/WX    TMP DP  RH WIND       PRES   REMARKS
THOMSON        CLOUDY    47  47 100 NW7       30.04F
AUGUSTA-BUSH   LGT RAIN  48  47  96 NW9       29.96F
6HR MIN TEMP:  48; 6HR MAX TEMP:  54; 6HR PCP:  0.08;

AUGUSTA-DANIEL LGT RAIN  49  47  93 NW12      29.97F
SWAINSBORO     HVY RAIN  50  50 100 NW12G18   29.95F
VIDALIA        DRIZZLE   48  46  93 N9G17     29.93F
HAZLEHURST     LGT RAIN  49  49 100 NW6G22    29.94F
ALMA           CLOUDY    48  46  93 NW15G24   29.93F FOG
6HR MIN TEMP:  48; 6HR MAX TEMP:  52; 6HR PCP:  0.08;

WAYCROSS       HVY RAIN  52  51  97 N10       29.93R
JESUP          LGT RAIN  54  52  94 N7G20     29.89S
BAXLEY         LGT RAIN  50  48  93 NW13G21   29.93F
BRUNSWICK      CLOUDY    59  55  88 NW5       29.86F
SAINT SIMONS   CLOUDY    59  58  96 NW5       29.85F FOG
6HR MIN TEMP:  59; 6HR MAX TEMP:  62; 6HR PCP:  0.15;


$$

SCZ027-028-034-036>038-045-046-048>050-GAZ119-141-260700-
...LAKE AND SUPPLEMENTAL COASTAL OBSERVATIONS...

STATION/POSITION TIME  TEMP    WIND        PRES    WAVE   SWELL
                       AIR SEA DIR/SP/G            HT/PER HT/PER/DIR
                 (UTC) (F)     (DEG/KT/KT) (MB)    (FT/S) (FT/S/D)
UPR LAKE MARION  NOT AVBL
WINYAH BAY       0600   63      50/  9     1010.0S
LAKE MURRAY      0500   53     350/  3/  7 1013.9F
ACE BASIN NERRS  0600   59     360/  3     1010.0S
FORT PULASKI     0600   59     310/ 10/ 12 1010.9S
SAPELO ISLAND    0600   59     320/  7     1011.0S

$$

ANZ835-935-AMZ111-154-330-350-352-354-370-450-454-472-260700-
...C-MAN AND BUOY OBSERVATIONS...

STATION/POSITION TIME  TEMP    WIND        PRES    WAVE   SWELL
                       AIR SEA DIR/SP/G            HT/PER HT/PER/DIR
                 (UTC) (F)     (DEG/KT/KT) (MB)    (FT/S) (FT/S/D)
FOLLY BEACH CMAN 0600   62     300/  6/  8 1009.9F
BUOY 41004       0600   74 75  130/ 29/ 37 1007.2F   7/ 6   3/ 9
BUOY 41008       0600   61 64  350/ 14/ 16 1009.9F   4/ 5   2/110/ 9
CAPERS NEARSHORE 0500   62      50/ 10/ 12   N/A
FRIPP NEARSHORE  NOT AVBL


STATION/POSITION TIME  TEMP    WIND        PRES    WAVE   SWELL
                       AIR SEA DIR/SP/G            HT/PER HT/PER/DIR
                 (UTC) (F)     (DEG/KT/KT) (MB)    (FT/S) (FT/S/D)
5E ST. MARYS GA  0600      63                N/A     4/ 6   2/110/11
FRYING PAN BUOY  0600   72 71  140/ 19/ 25 1012.2F   4/ 8   3/120/ 8
BUOY 41025       0600   69     150/  4/  6 1015.9F   5/ 8   5/130/ 8
CAPE LOOKOUT NC  0600   63      90/ 11/ 14 1014.1F
BUOY 41002       0546   75 74  180/ 16/ 19 1016.7F   6/ 9   3/110/ 9
BUOY 41010       0600   79 78  180/ 21/ 25 1012.7F   8/ 6   3/130/ 9
ST AUGUSTINE FL  0600   68     190/  4/  5 1010.8R


$$


USA.gov is the U.S. government's official web portal to all federal, state and local government web resources and services.